[[{"header":{"parameterUnit":"m.s-1","parameterCategory":1,"la1":30.2991,"la2":30.254,"lo1":-89.0895,"lo2":-89.0444,"dy":0.0017,"dx":0.0017,"nx":28,"ny":28,"refTime":"2025-03-24T21:00:00:Z","depth":0,"parameterNumber":2,"parameterNumberName":"U-component_of_WINDS"},"data":[0,0,0,0,0,0,0,0,0,0,0,0,0,0,0,0,0,0,0,0,0,0,0,0,0,0,0,0,0,0,0,0,0,0,0,0,0,0,0,0,0,0,0,0,0,0,0,0,0,0,0,0,0,0,0,0,0,0,-0.7481,-0.748,0,-0.7434,-0.7434,-0.7433,-0.738,-0.738,-0.7379,-0.7378,-0.7329,-0.7329,-0.7328,0,0,0,0,0,0,0,0,0,0,0,0,0,-0.7523,-0.7522,-0.7481,-0.748,-0.748,-0.7434,-0.7434,-0.7433,-0.7381,-0.738,-0.7379,-0.7378,-0.7329,-0.7329,-0.7328,0,0,0,0,0,0,0,0,0,0,0,0,0,-0.7493,-0.7522,-0.7481,-0.7448,-0.7445,-0.7435,-0.7434,-0.7433,-0.7381,-0.738,-0.7378,-0.7377,-0.733,-0.7329,-0.7328,-0.7346,0,0,-0.7325,-0.7325,0,0,0,0,0,0,0,0,-0.7495,-0.7492,-0.7453,-0.745,-0.7446,-0.7412,-0.7431,-0.7404,-0.7381,-0.7405,-0.7378,-0.7377,-0.7358,-0.7354,-0.7348,-0.7344,-0.7342,-0.7325,-0.7325,-0.7324,-0.7324,0,0,0,0,0,0,0,-0.7497,-0.7494,-0.7462,-0.7453,-0.7449,-0.7435,-0.743,-0.7425,-0.7388,-0.7403,-0.7399,-0.7394,-0.7355,-0.7349,-0.7347,-0.7341,-0.7325,-0.7325,-0.7324,-0.7324,-0.735,-0.7351,0,0,0,0,0,0,-0.7504,-0.7496,-0.7464,-0.7461,-0.7468,-0.7435,-0.7429,-0.7424,-0.7388,-0.7382,-0.7395,-0.7392,-0.7351,-0.7348,-0.7345,-0.7364,-0.7324,-0.7324,-0.7323,-0.7349,-0.735,-0.7352,0,0,0,0,0,0,-0.7505,-0.7502,-0.7466,-0.7477,-0.7472,-0.7436,-0.7431,-0.7424,-0.7418,-0.7383,-0.7376,-0.7396,-0.735,-0.7346,-0.7347,-0.7362,-0.7323,-0.7323,-0.7348,-0.7349,-0.7351,-0.7404,0,0,0,0,0,0,-0.7507,-0.7503,-0.751,-0.7478,-0.7471,-0.7469,-0.7432,-0.7424,-0.7416,-0.7412,-0.7381,-0.7375,-0.7349,-0.7348,-0.7346,-0.736,-0.7322,-0.7346,-0.7348,-0.7351,-0.74,-0.7407,-0.7413,0,0,0,0,0,-0.7509,-0.7526,-0.751,-0.7507,-0.7479,-0.747,-0.7466,-0.7436,-0.7418,-0.7424,-0.7402,-0.7376,-0.7361,-0.7349,-0.7345,-0.736,-0.7345,-0.7348,-0.735,-0.7398,-0.7406,-0.7413,0,0,0,0,0,0,-0.756,-0.7521,-0.7503,-0.7511,-0.7494,-0.7461,-0.7468,-0.7445,-0.7433,-0.7429,-0.7392,-0.7385,-0.7391,-0.7375,-0.7362,-0.7376,-0.7349,-0.7351,-0.7386,-0.7393,-0.7399,-0.7403,-0.7321,0,0,0,0,0,-0.7572,-0.7568,-0.7534,-0.7544,-0.7537,-0.7504,-0.7499,-0.7477,-0.7458,-0.7451,-0.7428,-0.741,-0.7402,-0.7396,-0.7386,-0.7398,-0.739,-0.7406,-0.7412,-0.7417,-0.742,-0.7425,-0.7432,-0.7361,-0.7361,-0.7361,0,0,-0.7597,-0.7575,-0.7575,-0.7554,-0.7538,-0.7535,-0.7498,-0.7496,-0.7493,-0.745,-0.745,-0.7433,-0.741,-0.7417,-0.7418,-0.7404,-0.7438,-0.7421,-0.7425,-0.7425,-0.7429,-0.7436,-0.7442,-0.7363,-0.7362,-0.7362,0,0,-0.7641,-0.7624,-0.7631,-0.7616,-0.7594,-0.7572,-0.7574,-0.7544,-0.7531,-0.753,-0.7498,-0.7494,-0.7479,-0.7465,-0.7455,-0.7495,-0.7471,-0.7492,-0.7525,-0.753,-0.7536,-0.7541,-0.7555,-0.7561,-0.7495,-0.7495,-0.7495,0,-0.7675,-0.7669,-0.7637,-0.7637,-0.7629,-0.759,-0.7597,-0.7584,-0.7559,-0.7554,-0.7538,-0.752,-0.7502,-0.7505,-0.7514,-0.7508,-0.7509,-0.7496,-0.7538,-0.7542,-0.7546,-0.756,-0.7565,-0.7498,-0.7498,-0.7497,-0.7497,0,-0.7712,-0.7709,-0.7717,-0.7694,-0.7687,-0.769,-0.7659,-0.7655,-0.7634,-0.7614,-0.7613,-0.7591,-0.7576,-0.7575,-0.7554,-0.7574,-0.7566,-0.7545,-0.7517,-0.7557,-0.7569,-0.7574,-0.7502,-0.7501,-0.75,-0.7499,0,0,-0.7788,-0.7748,-0.7751,-0.7741,-0.7713,-0.771,-0.7711,-0.7697,-0.7695,-0.7678,-0.7679,-0.7668,-0.7648,-0.7638,-0.7615,-0.762,-0.7653,-0.7598,-0.7597,-0.7609,-0.7675,-0.7692,-0.7698,-0.7637,-0.7638,-0.7638,-0.7677,0,-0.7827,-0.7828,-0.78,-0.7808,-0.7805,-0.7768,-0.777,-0.7753,-0.7734,-0.7728,-0.7707,-0.77,-0.7674,-0.7667,-0.7671,-0.7649,-0.7666,-0.7645,-0.7637,-0.7637,-0.7645,-0.7705,-0.7722,-0.776,-0.7682,-0.7682,-0.7683,0,-0.7874,-0.7861,-0.787,-0.7842,-0.784,-0.7842,-0.7826,-0.7821,-0.7801,-0.7787,-0.7776,-0.775,-0.775,-0.7723,-0.7722,-0.7709,-0.7704,-0.7692,-0.7693,-0.7691,-0.7663,-0.7705,-0.7771,-0.7777,-0.769,-0.7689,-0.7689,0,-0.7929,-0.7914,-0.7917,-0.7909,-0.7877,-0.7879,-0.7866,-0.7845,-0.7838,-0.7825,-0.782,-0.7807,-0.7799,-0.779,-0.7761,-0.7744,-0.7763,-0.7734,-0.7752,-0.7753,-0.7758,-0.7758,-0.7824,-0.7754,-0.7754,-0.7753,-0.7753,0,-0.7976,-0.7983,-0.7942,-0.7944,-0.795,-0.7917,-0.7925,-0.7908,-0.7889,-0.7887,-0.7854,-0.7853,-0.7815,-0.781,-0.7787,-0.779,-0.7787,-0.7776,-0.777,-0.7779,-0.7781,-0.7775,-0.7772,-0.7755,-0.7755,-0.7754,-0.7754,0,-0.8039,-0.8011,-0.8013,-0.7982,-0.7975,-0.7981,-0.7955,-0.7955,-0.7935,-0.7933,-0.793,-0.7898,-0.789,-0.786,-0.7845,-0.7829,-0.784,-0.7828,-0.7847,-0.7843,-0.7862,-0.7861,-0.7928,-0.7936,-0.786,-0.7861,-0.7861,0,-0.8071,-0.8076,-0.8046,-0.8043,-0.8031,-0.8026,-0.8019,-0.7987,-0.7981,-0.7959,-0.7963,-0.7952,-0.7942,-0.7931,-0.7905,-0.7893,-0.7881,-0.7906,-0.7879,-0.7889,-0.7882,-0.7883,-0.7883,-0.7912,-0.7913,-0.7913,-0.7914,0,-0.8132,-0.8119,-0.8111,-0.8098,-0.8091,-0.808,-0.8066,-0.8065,-0.8029,-0.8024,-0.8016,-0.8008,-0.7992,-0.7982,-0.7966,-0.7952,-0.7927,-0.7922,-0.7926,-0.7936,-0.7947,-0.7942,-0.7863,-0.7921,-0.792,-0.792,-0.792,-0.7919,-0.8181,-0.8184,-0.8164,-0.8156,-0.8142,-0.813,-0.813,-0.8109,-0.8102,-0.8087,-0.8068,-0.8063,-0.8042,-0.8019,-0.8006,-0.8001,-0.7987,-0.7992,-0.7993,-0.7995,-0.8,-0.7948,-0.7998,-0.7998,-0.7997,-0.7997,-0.7997,0,-0.8241,-0.8226,-0.822,-0.8202,-0.8196,-0.8173,-0.8157,-0.8154,-0.8149,-0.8133,-0.8124,-0.8114,-0.8104,-0.8079,-0.8066,-0.8067,-0.8056,-0.8065,-0.8065,-0.8062,-0.8013,-0.8011,-0.8075,-0.8075,-0.8075,-0.8075,-0.8075,-0.8075,-0.8272,-0.8275,-0.8259,-0.8256,-0.824,-0.8235,-0.8228,-0.8217,-0.8203,-0.8195,-0.8187,-0.817,-0.815,-0.8136,-0.8126,-0.8119,-0.8116,-0.8129,-0.8119,-0.8073,-0.8066,-0.8059,-0.8057,-0.8129,-0.8129,-0.8168,-0.8169,-0.8169]},{"header":{"parameterUnit":"m.s-1","parameterCategory":1,"la1":30.2991,"la2":30.254,"lo1":-89.0895,"lo2":-89.0444,"dy":0.0017,"dx":0.0017,"nx":28,"ny":28,"refTime":"2025-03-24T21:00:00:Z","depth":0,"parameterNumber":3,"parameterNumberName":"V-component_of_WINDS"},"data":[0,0,0,0,0,0,0,0,0,0,0,0,0,0,0,0,0,0,0,0,0,0,0,0,0,0,0,0,0,0,0,0,0,0,0,0,0,0,0,0,0,0,0,0,0,0,0,0,0,0,0,0,0,0,0,0,0,0,-0.6969,-0.697,0,-0.7046,-0.7047,-0.7048,-0.708,-0.708,-0.708,-0.708,-0.716,-0.7162,-0.7165,0,0,0,0,0,0,0,0,0,0,0,0,0,-0.6849,-0.6851,-0.6969,-0.697,-0.6971,-0.7046,-0.7047,-0.7048,-0.708,-0.708,-0.708,-0.708,-0.7159,-0.7162,-0.7165,0,0,0,0,0,0,0,0,0,0,0,0,0,-0.6911,-0.6852,-0.6969,-0.6996,-0.6999,-0.7046,-0.7047,-0.7049,-0.708,-0.708,-0.708,-0.708,-0.7159,-0.7162,-0.7165,-0.7191,0,0,-0.7176,-0.7177,0,0,0,0,0,0,0,0,-0.6908,-0.6916,-0.6991,-0.6994,-0.6998,-0.7053,-0.7035,-0.7097,-0.708,-0.7049,-0.708,-0.708,-0.7125,-0.7131,-0.7146,-0.7195,-0.7199,-0.7176,-0.7178,-0.718,-0.7181,0,0,0,0,0,0,0,-0.6904,-0.6913,-0.7,-0.6992,-0.6996,-0.7004,-0.7013,-0.7047,-0.7088,-0.7052,-0.7055,-0.7063,-0.7127,-0.7143,-0.7148,-0.72,-0.7176,-0.7179,-0.7181,-0.7183,-0.7276,-0.7276,0,0,0,0,0,0,-0.6895,-0.6909,-0.6997,-0.7002,-0.6951,-0.7007,-0.7016,-0.7036,-0.7087,-0.7095,-0.7064,-0.7065,-0.7137,-0.7144,-0.7151,-0.7186,-0.718,-0.7183,-0.7185,-0.7275,-0.7276,-0.7276,0,0,0,0,0,0,-0.6892,-0.6902,-0.6994,-0.6956,-0.6968,-0.7009,-0.7031,-0.7037,-0.7054,-0.7096,-0.7104,-0.7072,-0.7137,-0.7146,-0.7181,-0.7189,-0.7184,-0.7188,-0.7275,-0.7275,-0.7276,-0.7255,0,0,0,0,0,0,-0.6888,-0.6901,-0.6911,-0.6956,-0.697,-0.7022,-0.7031,-0.7039,-0.7059,-0.7061,-0.7106,-0.7113,-0.7138,-0.7176,-0.7185,-0.7194,-0.719,-0.7274,-0.7275,-0.7276,-0.7255,-0.7255,-0.7254,0,0,0,0,0,-0.6884,-0.6902,-0.6911,-0.6922,-0.6984,-0.7022,-0.7031,-0.7058,-0.706,-0.707,-0.7098,-0.7112,-0.7187,-0.7179,-0.719,-0.72,-0.7274,-0.7275,-0.7276,-0.7255,-0.7255,-0.7254,0,0,0,0,0,0,-0.6857,-0.6908,-0.6919,-0.6952,-0.6983,-0.7028,-0.7042,-0.7057,-0.7087,-0.7088,-0.7121,-0.7131,-0.7163,-0.7185,-0.7176,-0.7228,-0.7232,-0.7235,-0.7213,-0.7213,-0.7212,-0.7206,-0.7193,0,0,0,0,0,-0.6854,-0.6881,-0.6925,-0.695,-0.6965,-0.7001,-0.7019,-0.7037,-0.707,-0.7083,-0.7113,-0.7145,-0.7176,-0.7196,-0.7226,-0.7259,-0.7269,-0.7271,-0.727,-0.727,-0.7272,-0.7292,-0.7293,-0.7279,-0.7279,-0.7279,0,0,-0.685,-0.6882,-0.6897,-0.6946,-0.6971,-0.6999,-0.7011,-0.704,-0.7061,-0.7088,-0.7123,-0.7146,-0.7184,-0.7218,-0.7234,-0.7237,-0.7278,-0.7271,-0.727,-0.7273,-0.7293,-0.7294,-0.7295,-0.728,-0.728,-0.7279,0,0,-0.6856,-0.6883,-0.6907,-0.6933,-0.6972,-0.6995,-0.7001,-0.7044,-0.7061,-0.7096,-0.7117,-0.7143,-0.7195,-0.7222,-0.7242,-0.7259,-0.7274,-0.7269,-0.7267,-0.7285,-0.7286,-0.7287,-0.7294,-0.7296,-0.7271,-0.7271,-0.7271,0,-0.6846,-0.6888,-0.6917,-0.6945,-0.6966,-0.6992,-0.7017,-0.704,-0.7087,-0.7102,-0.7104,-0.7171,-0.7198,-0.7239,-0.7243,-0.7259,-0.7267,-0.7263,-0.7284,-0.7285,-0.7287,-0.7293,-0.7296,-0.727,-0.727,-0.727,-0.727,0,-0.6874,-0.6903,-0.6918,-0.6963,-0.6985,-0.7011,-0.7045,-0.7065,-0.7082,-0.7105,-0.7142,-0.7176,-0.7214,-0.7225,-0.7242,-0.7269,-0.7269,-0.7277,-0.7281,-0.7287,-0.7293,-0.7296,-0.7268,-0.7269,-0.7269,-0.7269,0,0,-0.6864,-0.6925,-0.693,-0.6951,-0.6997,-0.702,-0.7048,-0.7085,-0.7102,-0.7134,-0.7158,-0.7202,-0.721,-0.7233,-0.7253,-0.727,-0.7282,-0.7276,-0.7278,-0.7276,-0.7314,-0.7308,-0.731,-0.7292,-0.7293,-0.7293,-0.7311,0,-0.6877,-0.6927,-0.6954,-0.6993,-0.7021,-0.7046,-0.7071,-0.7102,-0.7125,-0.7152,-0.7178,-0.7209,-0.7217,-0.7231,-0.7249,-0.7277,-0.729,-0.7276,-0.7315,-0.7317,-0.7305,-0.7314,-0.7307,-0.7322,-0.7314,-0.7314,-0.7315,0,-0.6898,-0.6929,-0.6971,-0.7014,-0.7027,-0.7048,-0.7085,-0.711,-0.7146,-0.7162,-0.7188,-0.7208,-0.7239,-0.7241,-0.7285,-0.7274,-0.7292,-0.7309,-0.731,-0.7315,-0.7316,-0.7318,-0.7327,-0.7329,-0.7319,-0.7319,-0.7319,0,-0.6887,-0.694,-0.6972,-0.6989,-0.704,-0.7054,-0.7076,-0.7112,-0.7133,-0.7165,-0.718,-0.7215,-0.7235,-0.7262,-0.7292,-0.7291,-0.7333,-0.7337,-0.7347,-0.7346,-0.7355,-0.7354,-0.7366,-0.7366,-0.7366,-0.7366,-0.7366,0,-0.6898,-0.6922,-0.6968,-0.6987,-0.7016,-0.7047,-0.7075,-0.7099,-0.7131,-0.7156,-0.718,-0.7204,-0.7241,-0.7269,-0.7293,-0.7326,-0.7334,-0.7348,-0.7354,-0.7346,-0.7344,-0.7358,-0.7358,-0.7367,-0.7367,-0.7367,-0.7366,0,-0.689,-0.6921,-0.6958,-0.7003,-0.7015,-0.7034,-0.7074,-0.7094,-0.7119,-0.7151,-0.716,-0.7199,-0.7234,-0.7266,-0.7312,-0.7328,-0.7361,-0.7368,-0.7348,-0.7352,-0.736,-0.7359,-0.7382,-0.7387,-0.7383,-0.7383,-0.7383,0,-0.6895,-0.6914,-0.6962,-0.6981,-0.7002,-0.7032,-0.7053,-0.7086,-0.7107,-0.715,-0.7165,-0.7202,-0.7232,-0.7287,-0.732,-0.7355,-0.7364,-0.737,-0.7369,-0.7361,-0.7364,-0.7362,-0.7365,-0.7369,-0.7369,-0.7369,-0.7369,0,-0.69,-0.6915,-0.6945,-0.6981,-0.7006,-0.7036,-0.7066,-0.708,-0.7119,-0.7142,-0.7177,-0.7201,-0.7248,-0.7284,-0.7324,-0.7347,-0.7365,-0.7369,-0.7373,-0.7364,-0.7352,-0.7359,-0.7347,-0.7368,-0.7368,-0.7368,-0.7368,-0.7368,-0.6899,-0.6918,-0.6955,-0.6987,-0.7014,-0.7042,-0.7064,-0.7091,-0.7121,-0.7162,-0.718,-0.7216,-0.7252,-0.7307,-0.733,-0.736,-0.7363,-0.7369,-0.7371,-0.7372,-0.737,-0.7348,-0.7367,-0.7367,-0.7367,-0.7367,-0.7367,0,-0.6906,-0.6931,-0.6961,-0.7003,-0.7029,-0.7043,-0.7078,-0.7099,-0.713,-0.7163,-0.7192,-0.7234,-0.7269,-0.7305,-0.7342,-0.7359,-0.7368,-0.7367,-0.7366,-0.7372,-0.7365,-0.7357,-0.736,-0.736,-0.736,-0.736,-0.736,-0.736,-0.6913,-0.6945,-0.6964,-0.7011,-0.7036,-0.7071,-0.709,-0.7116,-0.7142,-0.7187,-0.7216,-0.7239,-0.7274,-0.7314,-0.7347,-0.7357,-0.7369,-0.7367,-0.7379,-0.7372,-0.7372,-0.7372,-0.7366,-0.7369,-0.7369,-0.7383,-0.7384,-0.7384]}]]